Location: ????????
(55.0559°N, 39.1270°E)
Time: 17:20:16
(UTC+00:00)

Cosmos 1356 Rocket - Pass Details

Date: 15 November 2025
Orbit: 517 x 558 km, 81.2° (Epoch: 14 December)

Event Time Altitude Azimuth Distance (km) Brightness Sun altitude
Rises 03:32:44 0° 348° (NNW) 2,733 6.6 -11.7°
Reaches altitude 10° 03:34:57 10° 354° (N) 1,841 5.8 -11.4°
Maximum altitude 03:38:56 51° 71° (ENE) 705 4.2 -10.8°
Drops below altitude 10° 03:42:54 10° 148° (SSE) 1,843 6.8 -10.3°
Sets 03:45:07 0° 154° (SSE) 2,736 7.6 -10.0°
